Location: Neuvy Saint Sepulchre
(46.5953°N, 1.8122°E)
Time: 12:59:13
(UTC+02:00)

ISS - Pass Details

Date: 01 October 2022
Orbit: 414 x 417 km, 51.6° (Epoch: 01 October)

Event Time Altitude Azimuth Distance (km) Brightness Sun altitude
Rises 20:28:10 0° 296° (WNW) 2,361 1.6 -10.3°
Reaches altitude 10° 20:30:16 10° 297° (WNW) 1,496 0.3 -10.7°
Maximum altitude 20:33:38 83° 24° (NNE) 425 -3.8 -11.3°
Enters shadow 20:35:58 18° 113° (ESE) 1,083 -2.3 -11.7°
